User: anonymous   Login
Location: Unspecified
(0.0000°N, 0.0000°E)
Time: 19:02:52
(UTC+00:00)
Language:

SWAYAM - Orbit

View from above orbital plane
View from above orbital plane
View from above satellite
View from above satellite

Ground track
Ground track

The orbit data is extracted from the following two-line orbital elements,

1 41607U 16040J   17084.88604125 +.00002363 +00000-0 +11141-3 0  9998
2 41607 097.4701 147.9638 0014680 014.4747 345.6906 15.20387170041947
Epoch (UTC): 25 March 2017 21:15:53
Eccentricity: 0.0014680
inclination: 97.4701°
perigee height: 494 km
apogee height: 515 km
right ascension of ascending node: 147.9638°
argument of perigee: 14.4747°
revolutions per day: 15.20387170
mean anomaly at epoch: 345.6906°
orbit number at epoch: 4194

The dashed part of the orbit path shows where the satellite is in the earth's shadow,  

DLR